Regional Weather Roundup
Issued by NWS

Home | Current Version | Previous Version | Text Only | Print | Product List | Glossary Off
Versions: 1 2 3 4 5 6 7 8 9 10 11 12 13 14 15 16 17 18 19 20 21 22 23 24 25 26 27 28 29 30 31 32 33 34 35 36 37 38 39 40 41 42 43 44 45 46 47 48 49 50

000
ASUS43 KFSD 060110
RWRSD

WEATHER ROUNDUP FOR SOUTH DAKOTA
NATIONAL WEATHER SERVICE SIOUX FALLS SD
700 PM CST MON DEC 05 2016

NOTE: "FAIR" INDICATES FEW OR NO CLOUDS BELOW 12,000 FEET WITH NO
SIGNIFICANT WEATHER AND/OR OBSTRUCTIONS TO VISIBILITY.


SDZ001>005-009-010-012>017-060200-
NORTHWEST AND NORTH CENTRAL SOUTH DAKOTA

CITY           SKY/WX    TMP DP  RH WIND       PRES   REMARKS
BUFFALO          N/A     11   6  81 NW28G40   29.76R WCI -10
FAITH            N/A     13  10  88 NW31G44   29.80R WCI  -9
MOBRIDGE       LGT SNOW  20  13  74 NW32G43   29.71R WCI   1
$$

SDZ012>016-024>037-041>051-057-063-072>074-060200-
SOUTHWEST AND SOUTH CENTRAL SOUTH DAKOTA

CITY           SKY/WX    TMP DP  RH WIND       PRES   REMARKS
RAPID CTY ARPT MOCLDY    19  13  77 N17       29.85R WCI   4
PIERRE         CLOUDY    24  15  68 NW33G39   29.80R WCI   6
CUSTER         CLEAR     12   1  61 NW13G24   29.72R WCI  -3
ELLSWORTH AFB  MOCLDY    20  14  76 N18G28    29.83R WCI   5
PHILIP         CLOUDY    22  12  65 NW31G39   29.85R WCI   4
PINE RIDGE     CLOUDY    20  18  92 CALM      29.85R
SPEARFISH      FLURRIES  18  12  79 NW18G26   29.85R WCI   2
WINNER         FAIR      25  20  81 NW21G30   29.82R WCI  11
$$

SDZ004>011-016>023-039-040-060200-
NORTHEAST SOUTH DAKOTA

CITY           SKY/WX    TMP DP  RH WIND       PRES   REMARKS
ABERDEEN       CLOUDY    28  21  75 NW26G38   29.60R WCI  13
WATERTOWN      CLOUDY    30  27  88 W23G32    29.53R WCI  17
BROOKINGS      CLOUDY    31  27  85 W29G40    29.59R WCI  16
SISSETON         N/A     36  31  82 W22G29    29.46S
$$

SDZ017-020-022-023-036>040-048>070-060200-
SOUTHEAST SOUTH DAKOTA

CITY           SKY/WX    TMP DP  RH WIND       PRES   REMARKS
SIOUX FALLS    CLOUDY    35  29  78 W18G32    29.66R WCI  24
HURON          CLOUDY    29  22  75 NW29G43   29.70R WCI  14
CHAMBERLAIN    LGT SNOW  27  24  88 NW23      29.80R WCI  12
MITCHELL       CLOUDY    30  24  78 NW29G37   29.74R WCI  15
YANKTON        CLOUDY   N/A N/A N/A W20G32    29.75R
$$

ABBREVIATIONS USED IN REMARKS
   TC - TEMPERATURE IN CELSIUS
  WCI - WIND CHILL INDEX
   HX - HEAT INDEX
  VSB - VISIBILITY




USA.gov is the U.S. government's official web portal to all federal, state and local government web resources and services.